Location: Dodgeville, WI 53533, USA
(43.0344°N, 90.0900°W)
Time: 23:47:30
(UTC-06:00)

ISS - Pass Details

Date: 30 January 2021
Orbit: 417 x 422 km, 51.6° (Epoch: 08 March)

Event Time Altitude Azimuth Distance (km) Brightness Sun altitude
Rises 18:01:51 0° 301° (WNW) 2,374 0.8 -9.6°
Reaches altitude 10° 18:04:19 10° 318° (NW) 1,509 -0.6 -10.1°
Maximum altitude 18:06:56 20° 9° (N) 1,032 -2.0 -10.5°
Enters shadow 18:08:45 14° 49° (NE) 1,283 -1.8 -10.9°
